Regional Weather Roundup
Issued by NWS Bismarck, ND

Home | Current Version | Previous Version | Text Only | Print | Product List | Glossary On
Versions: 1 2 3 4 5 6 7 8 9 10 11 12 13 14 15 16 17 18 19 20 21 22 23 24 25 26 27 28 29 30 31 32 33 34 35 36 37 38 39 40 41 42 43 44 45 46 47 48 49 50
000
ASUS43 KBIS 302020
RWRBIS

NWR BROADCAST TEXT
NATIONAL WEATHER SERVICE BISMARCK ND
200 PM CST FRI JAN 30 2015

NOTE: "FAIR" INDICATES FEW OR NO CLOUDS BELOW 12,000 FEET WITH NO
SIGNIFICANT WEATHER AND/OR OBSTRUCTIONS TO VISIBILITY.


CITY           SKY/WX    TMP DP  RH WIND       PRES   REMARKS
WILLISTON      SUNNY     39  26  59 NW10      30.19F
MINOT          PTSUNNY   31  26  82 NW18G28   30.13S WCI  19
MINOT AFB      CLOUDY    29  29  99 NW18      30.13R WCI  16
BISMARCK       SUNNY     44  28  53 W10G16    30.13F
DICKINSON      SUNNY     46  27  47 NW15      30.13F
GARRISON         N/A     40  30  67 NW18      30.12F
HETTINGER ARPT SUNNY     49  25  39 NW12      30.15F
JAMESTOWN      SUNNY     37  24  59 W13       30.09F
BEACH          FAIR      41  30  65 NW10      30.18F
CARRINGTON     FAIR      34  28  80 MISG      30.10F
CROSBY         FAIR      32  28  86 NW13      30.19F
HARVEY         FAIR      34  27  75 NW16      30.10S
HAZEN          FAIR      43  28  56 NW10      30.14F
LINTON         FAIR      37  27  65 NW8       30.13F
MANDAN         FAIR      45  30  57 NW12G17   30.12F
OAKES            N/A     32  27  80 SW15      30.14F
RUGBY          FAIR      27  23  86 NW18      30.11R WCI  13
STANLEY        FAIR      32  30  93 NW14G22   30.14F
TIOGA          FAIR      32  32 100 NW15      30.19S
WATFORD CITY   FAIR      37  28  70 NW10      30.17S
$$

CITY           SKY/WX    TMP DP  RH WIND       PRES   REMARKS
GRAND FORKS    PTSUNNY   30  19  63 S12       30.14F
GRAND FORKS AF SUNNY     31  19  62 S13       30.13F
DEVILS LAKE    SUNNY     32  23  69 W15       30.08F
FARGO          MOSUNNY   30  19  63 S15G25    30.16F WCI  19
CANDO          FAIR      30  21  69 NW14      30.09F WCI  20
CAVALIER       FAIR      23  18  80 S10       30.12F WCI  12
GWINNER        CLEAR     37  30  75 SW16      30.14F
ROLLA          FAIR      27  27 100 N14       30.08S WCI  15
WALHALLA         N/A     23  23 100 SE9       30.10F WCI  13
$$

CITY           SKY/WX    TMP DP  RH WIND       PRES   REMARKS
ABERDEEN       SUNNY     38  27  64 S15       30.16F
MOBRIDGE       SUNNY     42  27  55 CALM      30.11F
BUFFALO          N/A     50  24  36 W12       30.09F
RAPID CITY     SUNNY     52  24  33 N18       30.13F
GLASGOW          N/A    N/A N/A N/A VRB3      30.21F
SIDNEY         SUNNY     43  25  49 N8        30.22S
WOLF POINT     SUNNY     39  29  67 SW9       30.22F
GLENDIVE       SUNNY     45  27  49 N10       30.20F
MILES CITY     SUNNY     43  28  55 W7        30.19F
BAKER          SUNNY     43  28  55 NW10      30.18F
$$

CITY           SKY/WX    TMP DP  RH WIND       PRES   REMARKS
BILLINGS       MOSUNNY   46  22  38 SW9       30.20F
GREAT FALLS    SUNNY     47  18  31 SW9       30.17F
REGINA         MOSUNNY   21  18  86 NW14      30.22S WCI   8
ESTEVAN        MOSUNNY   27  23  86 NW16      30.18S WCI  14
$$




USA.gov is the U.S. government's official web portal to all federal, state and local government web resources and services.